This is the latest recevied weather packets stored in our database for station/object KC0UFP. If no packets are shown the sender has not sent any weather packets the latest 10 day(s).
| Time | Temp. | Humidity | Pressure | Rain* | Wind** | Luminosity | Snow |
|---|---|---|---|---|---|---|---|
| 1778081824 | 11.67° C | 78% | 1015.1 hPa | 0 mm | - | 379 W/m² | - |
| 1778081521 | 11.67° C | 80% | 1015.3 hPa | 0 mm | - | 376 W/m² | - |
| 1778081218 | 11.67° C | 79% | 1015.5 hPa | 0 mm | - | 393 W/m² | - |
| 1778080916 | 11.11° C | 79% | 1015.5 hPa | 0 mm | - | 338 W/m² | - |
| 1778080615 | 11.11° C | 80% | 1015.2 hPa | 0 mm | - | 311 W/m² | - |
| 1778080310 | 11.11° C | 80% | 1015.2 hPa | 0 mm | - | 367 W/m² | - |
| 1778080007 | 11.11° C | 81% | 1015.5 hPa | 0 mm | - | 306 W/m² | - |
| 1778079705 | 10.56° C | 82% | 1015.3 hPa | 0 mm | - | 269 W/m² | - |
| 1778079401 | 11.11° C | 81% | 1015.4 hPa | 0 mm | - | 270 W/m² | - |
| 1778079098 | 10.56° C | 82% | 1015.4 hPa | 0 mm | - | 241 W/m² | - |
| 1778078796 | 10.56° C | 84% | 1015.5 hPa | 0 mm | - | 210 W/m² | - |
| 1778078492 | 10.56° C | 84% | 1015.7 hPa | 0 mm | - | 176 W/m² | - |
| 1778078190 | 10.56° C | 86% | 1015.4 hPa | 0 mm | - | 159 W/m² | - |
| 1778077888 | 10.56° C | 85% | 1015.4 hPa | 0 mm | - | 174 W/m² | - |
| 1778077586 | 10.56° C | 86% | 1015.2 hPa | 0 mm | - | 174 W/m² | - |
| 1778077284 | 10.56° C | 85% | 1014.9 hPa | 0 mm | - | 245 W/m² | - |
| 1778076981 | 10.56° C | 86% | 1014.7 hPa | 0 mm | - | 238 W/m² | - |
| 1778076679 | 10.56° C | 87% | 1014.8 hPa | 0 mm | - | 299 W/m² | - |
| 1778076376 | 10° C | 87% | 1014.7 hPa | 0 mm | - | 289 W/m² | - |
| 1778076073 | 10° C | 88% | 1014.8 hPa | 0 mm | - | 194 W/m² | - |
| 1778075770 | 10° C | 87% | 1014.8 hPa | 0 mm | - | 192 W/m² | - |
| 1778075466 | 10° C | 87% | 1014.8 hPa | 0 mm | - | 165 W/m² | - |
| 1778075163 | 10° C | 88% | 1014.7 hPa | 0 mm | - | 137 W/m² | - |
| 1778074859 | 10° C | 88% | 1014.6 hPa | 0 mm | - | 124 W/m² | - |
| 1778074556 | 10° C | 88% | 1014.7 hPa | 0 mm | - | 113 W/m² | - |
* Rain latest hour (hover to see other rain measurements)
** Current wind speed in m/s (hover to see current wind gust speed)